Wind_Speed
1 1 1 1 1 1 1 1 1 1 2 2 3 3 3 3 3 3 3 3 3 3 4 4 3 3 3 3 3 3 3 3 3 3 2 1 0 0 1 1 1 1 1
0 0 1 1 1 0 0 0 0 0 0 1 2 2 2 2 3 2 2 3 3 3 3 3 3 2 2 2 2 3 3 3 3 3 2 1 1 1 1 2 2 2 3
1 1 1 1 1 1 1 1 1 0 0 1 1 1 2 2 2 2 2 3 3 3 3 3 3 2 2 2 3 3 3 3 3 3 2 2 1 1 2 2 3 3 4
3 2 2 2 2 2 2 2 2 1 1 1 1 2 2 2 2 2 2 3 3 3 3 3 3 3 3 3 3 3 3 3 3 3 3 3 3 3 3 3 3 4 4
4 4 4 4 4 3 3 3 3 3 3 2 2 2 2 2 3 2 2 3 3 3 3 4 4 4 4 4 4 4 4 4 4 4 4 4 4 4 4 4 5 5 5
4 5 5 5 5 5 4 4 4 4 4 4 4 4 4 4 4 4 4 4 4 4 5 5 5 5 5 5 5 5 5 5 6 6 6 6 6 6 6 6 7 7 7
5 6 6 7 6 6 6 5 5 5 5 6 6 6 6 6 6 6 7 6 7 6 6 6 7 7 7 7 7 7 7 7 8 8 8 8 8 8 8 9 9 10 10
7 7 7 7 7 8 7 7 7 7 7 7 8 8 8 8 8 8 8 8 8 9 8 9 8 9 9 9 9 9 10 10 10 10 10 10 10 10 11 12 12 12 12
8 8 8 8 8 8 8 8 8 8 8 9 9 9 9 10 10 10 11 11 11 11 11 11 11 11 11 11 11 12 12 12 12 12 12 13 13 13 14 14 15 15 15
9 9 9 8 8 9 9 9 10 10 10 10 10 11 11 11 11 11 12 12 13 13 14 13 14 13 13 14 14 14 14 14 14 15 15 15 15 16 16 16 17 17 18
9 9 9 9 9 9 9 10 10 11 11 11 11 12 12 12 13 13 13 14 14 14 15 15 15 15 16 16 16 16 17 17 17 17 17 18 18 18 19 19 19 20 20
9 9 8 9 9 9 9 10 11 11 12 13 13 13 13 14 15 15 15 15 16 16 16 17 17 17 17 17 17 17 18 19 19 19 20 20 21 21 21 21 21 22 23
9 9 10 10 10 10 11 11 11 12 14 14 14 15 16 16 16 17 17 17 17 18 18 19 20 19 19 19 19 19 20 20 20 21 22 22 22 22 23 23 23 23 24
10 10 10 10 10 10 11 12 13 14 14 15 16 17 17 17 18 18 19 19 18 19 20 20 20 20 19 20 19 20 21 21 22 22 22 23 23 24 24 24 24 24 25
12 11 11 11 11 11 12 12 13 14 14 15 16 17 18 18 19 20 20 20 20 21 21 22 22 21 21 21 21 22 23 23 23 24 24 25 25 25 25 25 26 26 27
12 12 12 12 12 12 12 13 13 14 15 16 17 17 18 19 19 20 21 21 21 21 21 22 23 22 22 22 23 23 24 24 25 25 26 27 27 27 27 27 28 29 30
13 13 13 13 13 13 13 14 14 15 16 17 18 18 19 20 20 21 21 21 22 22 22 22 23 24 24 24 24 25 25 25 26 27 28 28 28 29 30 30 31 31 32
13 13 13 14 14 14 15 15 15 16 17 17 18 19 20 20 21 21 22 22 23 23 23 23 24 25 25 25 25 25 25 26 26 28 29 29 30 31 31 32 32 33 33
14 14 14 15 15 16 16 16 16 16 17 17 18 19 19 20 21 22 22 22 23 23 24 24 24 24 24 25 26 27 27 27 28 29 29 31 31 32 31 32 33 34 34
15 14 14 15 15 15 16 17 17 17 17 18 19 20 21 21 21 22 22 22 23 23 23 23 23 24 25 26 27 28 28 28 30 30 31 32 33 33 33 34 35 35 36
15 16 16 16 16 16 16 17 17 18 18 19 20 20 21 21 22 23 22 23 23 23 24 24 24 25 26 26 27 28 28 29 30 31 33 33 33 33 33 35 36 36 37
16 16 17 17 17 17 18 18 18 19 20 21 21 22 22 23 23 23 23 24 24 24 24 25 26 26 26 27 28 29 30 30 31 33 33 34 35 34 35 36 36 37 38
16 17 17 17 17 18 19 19 20 20 21 21 22 22 23 23 24 25 25 25 25 25 26 26 26 27 27 28 29 29 30 31 33 33 34 35 35 36 37 37 37 38 39
17 17 17 18 18 18 19 19 20 21 22 22 23 23 24 25 25 25 25 26 26 26 27 28 28 29 29 30 30 31 32 32 33 34 35 36 37 37 38 38 38 38 37
18 18 18 18 19 19 19 20 21 22 22 23 24 24 25 26 26 26 26 26 27 27 28 29 30 30 30 31 31 32 32 33 33 34 35 37 37 37 37 37 36 36 36
19 18 19 19 19 20 20 21 22 23 23 23 24 25 25 26 26 25 26 27 27 28 29 29 30 30 30 31 32 32 33 33 34 34 35 37 37 36 36 36 35 35 36
Wind_Direction
135 129 103 104 116 123 112 99 99 77 66 67 55 47 53 62 61 66 61 52 47 46 47 49 52 42 45 44 41 40 33 24 23 22 25 28 302 218 239 237 262 266 270
130 199 191 217 207 210 238 246 121 95 39 42 34 28 38 51 52 57 55 49 40 36 35 32 29 35 32 25 19 16 12 6 5 6 359 342 325 294 273 264 269 274 275
262 278 263 283 267 266 297 295 286 191 301 351 357 7 21 25 43 31 27 25 20 15 13 8 6 3 360 359 356 355 353 353 352 351 354 354 339 307 294 287 277 275 277
280 287 286 290 277 280 295 306 296 285 272 291 324 341 344 346 0 3 357 355 356 349 346 345 339 335 332 332 332 334 334 335 336 332 330 323 312 299 296 297 295 290 285
277 278 278 281 280 279 280 290 288 286 276 281 292 298 308 319 320 322 327 326 325 322 321 318 324 319 312 314 317 312 312 315 316 314 312 308 303 299 297 295 293 292 288
283 285 279 274 274 276 275 279 287 284 280 278 278 282 290 293 298 301 300 298 299 301 302 301 306 304 301 302 303 301 299 299 302 302 300 298 295 292 289 289 290 289 286
281 287 286 275 271 276 277 276 279 279 278 276 276 281 286 288 289 295 296 295 291 292 296 298 297 296 295 297 296 293 291 290 291 292 292 290 288 286 285 287 287 285 284
277 284 281 277 272 273 275 278 277 279 275 276 276 278 283 286 289 289 290 293 293 291 292 294 292 288 287 288 288 288 288 286 285 286 287 287 285 284 285 285 286 284 282
281 279 278 274 268 268 269 273 278 281 280 279 281 283 285 287 290 288 288 289 291 290 289 288 290 287 287 286 286 287 287 287 286 286 285 286 285 285 285 285 284 283 284
282 281 276 271 267 266 265 268 272 277 279 279 282 283 283 284 286 288 289 288 288 289 288 285 283 283 286 285 284 284 284 284 284 284 285 286 287 285 285 283 283 282 283
282 285 276 271 270 266 265 267 271 274 277 280 282 281 282 285 287 290 290 288 290 290 290 287 285 284 287 288 286 283 282 282 281 282 283 284 284 285 283 282 281 281 282
284 281 278 273 271 269 269 269 271 274 274 278 280 279 281 285 287 289 289 289 289 288 288 288 286 284 285 287 286 282 282 282 282 282 282 282 283 283 283 282 281 280 279
293 282 279 276 277 277 275 274 273 277 277 277 279 280 283 285 287 288 287 287 287 286 286 285 285 285 284 285 284 282 281 282 284 285 284 283 283 284 283 283 283 283 281
300 295 284 281 281 280 276 275 277 280 281 281 282 282 283 286 286 287 285 284 285 286 287 286 285 282 282 284 284 283 282 280 282 284 286 284 284 284 283 283 282 282 282
301 297 288 284 283 282 279 280 282 283 283 285 285 285 285 286 287 287 288 286 286 286 285 283 283 284 284 282 283 285 286 285 285 285 285 285 283 282 281 281 282 282 281
299 295 290 283 281 280 280 281 284 285 286 288 289 288 288 287 288 290 290 289 288 288 287 285 285 287 287 285 285 285 287 287 286 286 285 285 284 283 283 282 282 282 282
300 292 289 287 287 286 288 289 290 286 287 291 291 289 290 291 291 292 291 292 291 289 289 287 287 289 289 290 289 287 285 286 284 285 286 285 285 284 283 283 283 283 282
302 296 290 287 287 289 291 292 293 288 287 290 293 293 293 294 294 293 293 293 292 290 290 289 289 289 288 288 288 289 288 288 286 287 287 286 286 286 284 283 282 282 281
297 299 295 290 287 288 290 291 289 290 290 292 294 296 295 294 294 294 293 294 294 293 292 290 289 288 287 288 288 289 291 290 289 289 288 288 288 287 285 284 283 281 280
296 298 299 294 291 291 291 292 289 290 293 295 295 297 296 297 298 298 298 298 298 297 296 294 292 291 291 291 290 291 292 291 291 291 291 289 288 287 286 285 284 283 282
296 296 296 294 293 293 292 294 292 293 293 294 295 297 299 300 300 299 298 299 299 298 297 296 295 293 292 293 292 294 293 291 291 293 293 291 291 289 289 287 285 285 284
296 295 296 297 297 296 294 294 295 296 296 296 295 295 295 297 299 299 300 299 299 298 298 297 297 296 295 295 294 293 294 294 294 295 295 294 293 292 292 291 289 287 286
297 297 297 298 298 298 296 296 297 297 296 297 298 297 295 295 296 297 297 298 299 299 297 299 299 298 296 296 296 295 296 297 297 297 297 296 295 294 293 292 291 290 288
301 299 299 299 298 298 298 296 297 298 297 297 299 300 298 296 296 296 299 298 298 300 300 298 298 298 298 298 298 297 297 298 299 298 297 297 296 294 293 293 293 293 292
301 302 301 299 299 299 300 299 299 300 301 299 299 300 299 299 299 298 298 298 298 300 302 302 302 301 300 300 300 301 301 301 299 298 299 298 297 296 294 294 292 292 292
301 299 298 297 298 299 299 298 299 301 301 300 300 299 298 298 299 300 300 300 300 300 300 301 301 301 301 301 302 303 303 301 300 300 300 300 300 298 296 295 294 293 294
Height
5910 5910 5911 5911 5912 5912 5913 5913 5913 5913 5913 5914 5914 5914 5914 5914 5914 5914 5914 5914 5914 5914 5914 5914 5913 5913 5913 5913 5912 5912 5912 5911 5911 5910 5910 5910 5910 5910 5910 5910 5910 5910 5910
5911 5911 5912 5912 5913 5913 5913 5914 5914 5914 5914 5914 5914 5914 5914 5914 5914 5914 5914 5914 5914 5914 5914 5914 5914 5913 5913 5913 5913 5912 5912 5911 5911 5910 5910 5910 5910 5910 5910 5910 5910 5910 5909
5911 5911 5912 5913 5913 5913 5914 5914 5914 5915 5914 5915 5915 5915 5915 5915 5915 5915 5915 5915 5914 5914 5914 5914 5914 5913 5913 5913 5913 5912 5912 5911 5911 5910 5910 5909 5909 5909 5909 5909 5909 5909 5909
5911 5911 5912 5913 5913 5913 5914 5914 5914 5915 5915 5915 5915 5915 5915 5915 5915 5915 5915 5915 5915 5914 5914 5914 5913 5913 5913 5913 5912 5912 5912 5911 5911 5910 5909 5909 5909 5908 5908 5908 5908 5908 5907
5911 5911 5912 5912 5913 5913 5913 5914 5914 5914 5915 5915 5915 5915 5915 5915 5915 5915 5915 5915 5914 5914 5914 5913 5913 5913 5912 5912 5912 5912 5911 5911 5910 5910 5909 5908 5908 5908 5907 5907 5907 5907 5906
5910 5911 5911 5912 5912 5913 5913 5913 5914 5914 5914 5914 5914 5915 5915 5915 5915 5914 5914 5914 5914 5913 5913 5912 5912 5912 5912 5911 5911 5911 5910 5910 5909 5909 5908 5908 5907 5907 5906 5906 5906 5905 5905
5910 5910 5911 5911 5911 5912 5912 5912 5913 5913 5913 5913 5914 5914 5914 5914 5914 5913 5913 5913 5913 5912 5912 5911 5911 5911 5911 5910 5909 5909 5909 5908 5908 5907 5907 5906 5906 5905 5905 5904 5904 5903 5903
5909 5909 5909 5910 5910 5910 5911 5911 5911 5912 5912 5912 5912 5912 5912 5913 5912 5912 5912 5911 5911 5911 5910 5910 5910 5909 5909 5908 5908 5907 5907 5906 5906 5905 5905 5904 5904 5903 5903 5902 5901 5901 5900
5907 5908 5908 5908 5909 5909 5909 5910 5910 5910 5910 5911 5911 5911 5911 5911 5910 5910 5910 5909 5909 5908 5908 5907 5907 5907 5906 5906 5905 5905 5904 5904 5903 5903 5902 5902 5901 5900 5900 5899 5898 5898 5897
5905 5906 5906 5906 5907 5907 5907 5908 5908 5908 5909 5909 5909 5909 5908 5908 5908 5908 5908 5907 5906 5905 5904 5904 5904 5903 5903 5903 5902 5902 5901 5901 5900 5900 5899 5898 5898 5897 5896 5895 5895 5894 5893
5903 5903 5903 5904 5904 5905 5905 5905 5906 5906 5906 5906 5906 5906 5906 5905 5905 5905 5905 5904 5904 5903 5902 5901 5900 5900 5900 5900 5899 5898 5897 5897 5896 5896 5895 5894 5893 5893 5892 5891 5890 5889 5889
5901 5901 5901 5902 5902 5902 5903 5903 5903 5903 5903 5903 5903 5903 5903 5903 5902 5902 5902 5901 5900 5900 5899 5898 5897 5896 5896 5896 5895 5894 5893 5893 5892 5891 5890 5889 5889 5888 5887 5886 5885 5884 5883
5899 5899 5899 5899 5900 5900 5900 5900 5900 5900 5900 5900 5900 5900 5900 5900 5899 5898 5898 5897 5896 5896 5895 5894 5893 5892 5891 5891 5890 5889 5889 5888 5887 5886 5885 5884 5883 5882 5881 5880 5879 5878 5877
5897 5897 5897 5897 5897 5897 5897 5898 5898 5897 5897 5897 5897 5896 5896 5896 5895 5894 5894 5893 5892 5892 5890 5889 5887 5886 5886 5886 5885 5884 5883 5882 5881 5880 5879 5878 5877 5876 5875 5874 5873 5872 5871
5895 5895 5895 5895 5895 5895 5895 5894 5894 5894 5894 5894 5893 5892 5892 5891 5891 5890 5889 5888 5888 5887 5886 5884 5883 5882 5881 5881 5880 5879 5878 5876 5875 5874 5873 5872 5871 5870 5869 5868 5866 5865 5864
5892 5892 5892 5892 5892 5892 5891 5891 5891 5891 5891 5890 5889 5889 5888 5887 5886 5885 5884 5883 5882 5882 5881 5879 5878 5877 5876 5875 5874 5873 5872 5870 5869 5868 5867 5865 5864 5863 5861 5860 5859 5858 5856
5889 5889 5889 5889 5889 5888 5888 5888 5888 5887 5887 5886 5885 5885 5884 5882 5881 5880 5879 5878 5877 5876 5875 5874 5872 5871 5870 5869 5868 5866 5865 5863 5862 5861 5859 5858 5857 5855 5854 5852 5851 5849 5848
5887 5886 5886 5886 5886 5885 5885 5885 5884 5883 5883 5882 5881 5880 5879 5878 5877 5876 5874 5873 5872 5870 5869 5868 5867 5865 5864 5862 5861 5859 5857 5856 5855 5854 5852 5850 5849 5847 5845 5843 5842 5840 5839
5884 5883 5883 5883 5882 5882 5881 5881 5880 5880 5879 5878 5877 5876 5875 5874 5872 5871 5869 5868 5867 5865 5863 5862 5861 5859 5858 5856 5854 5853 5850 5849 5848 5846 5844 5842 5840 5838 5836 5834 5832 5831 5829
5881 5880 5880 5880 5879 5878 5878 5877 5876 5876 5875 5874 5873 5872 5871 5869 5867 5866 5864 5863 5861 5859 5858 5856 5855 5853 5851 5849 5847 5846 5844 5842 5840 5838 5836 5834 5831 5829 5827 5825 5823 5821 5819
5878 5877 5876 5876 5875 5875 5874 5873 5872 5872 5871 5870 5869 5867 5866 5864 5862 5861 5859 5857 5856 5854 5852 5850 5849 5846 5845 5842 5840 5838 5836 5834 5831 5829 5826 5824 5822 5820 5817 5814 5812 5810 5808
5875 5874 5873 5872 5871 5871 5870 5869 5868 5868 5866 5865 5864 5863 5861 5859 5857 5855 5853 5852 5850 5848 5846 5844 5842 5840 5838 5835 5833 5831 5828 5826 5824 5821 5817 5815 5812 5809 5807 5804 5802 5799 5797
5871 5870 5869 5868 5868 5867 5866 5865 5864 5863 5862 5860 5859 5857 5855 5854 5852 5850 5848 5846 5844 5842 5840 5838 5835 5833 5831 5828 5826 5823 5820 5817 5815 5811 5808 5805 5802 5799 5796 5793 5790 5788 5785
5867 5867 5866 5865 5864 5863 5862 5861 5859 5858 5856 5855 5853 5852 5850 5848 5846 5844 5842 5840 5838 5836 5833 5831 5828 5826 5823 5821 5818 5815 5812 5809 5806 5802 5799 5796 5792 5789 5785 5782 5779 5776 5773
5864 5862 5861 5861 5860 5859 5858 5856 5855 5853 5851 5850 5848 5846 5844 5842 5840 5838 5836 5834 5832 5829 5826 5824 5821 5818 5815 5813 5810 5807 5804 5801 5797 5793 5790 5786 5782 5779 5776 5772 5769 5765 5762
5860 5858 5858 5857 5856 5855 5853 5852 5850 5848 5846 5844 5842 5841 5839 5836 5834 5832 5830 5828 5825 5823 5820 5817 5814 5810 5807 5804 5801 5798 5795 5792 5788 5784 5780 5776 5772 5769 5765 5762 5758 5754 5751